FW6531 Weather Reports


Display with metric or nautical units.
time (UTC)temp
F
wind
direction
speed
MPH
gust
MPH
rain 1hr
in
rain 24hr
in
rain mn
in
humidity
%
barometer
mb
20260503184022 50 337 6.0 19.0 0.00 0.01 0.00 61 1003.1
20260503183520 50 346 9.0 18.0 0.00 0.01 0.00 61 1003.2
20260503183021 50 348 8.0 14.0 0.00 0.01 0.00 62 1003.1
20260503182520 50 30 6.0 12.0 0.00 0.01 0.00 64 1003.2
20260503182020 49 304 6.0 15.0 0.00 0.01 0.00 64 1003.2
20260503181519 49 23 7.0 14.0 0.00 0.01 0.00 64 1003.1
20260503181018 49 312 6.0 16.0 0.00 0.01 0.00 65 1003.3
20260503180518 49 336 8.0 16.0 0.00 0.01 0.00 64 1003.2
20260503180026 49 312 9.0 16.0 0.00 0.01 0.00 64 1003.3
20260503175515 49 319 8.0 19.0 0.00 0.01 0.00 66 1003.3
20260503175014 49 17 10.0 20.0 0.00 0.01 0.00 66 1003.2
20260503174520 48 347 12.0 27.0 0.00 0.01 0.00 66 1003.2
20260503174013 48 323 10.0 27.0 0.00 0.01 0.00 65 1003.3
20260503173514 48 360 12.0 22.0 0.00 0.01 0.00 65 1003.1
20260503173014 48 328 13.0 22.0 0.00 0.01 0.00 67 1003.2
20260503172512 48 22 8.0 29.0 0.00 0.01 0.00 68 1003.2
20260503172012 48 355 9.0 29.0 0.00 0.01 0.00 69 1003.2
20260503171516 48 287 10.0 18.0 0.00 0.01 0.00 70 1003.2
20260503171013 48 350 8.0 17.0 0.00 0.01 0.00 73 1003.2
20260503170511 47 23 11.0 16.0 0.00 0.01 0.00 73 1003.2
20260503053027 43 315 2.0 6.0 0.00 0.06 0.00 94 1008.6
20260503052526 43 325 3.0 8.0 0.00 0.06 0.00 94 1008.6
20260503052025 43 16 3.0 8.0 0.00 0.06 0.00 94 1008.7
20260503051535 43 342 2.0 9.0 0.00 0.06 0.00 94 1008.9
20260503051027 43 12 2.0 9.0 0.00 0.06 0.00 94 1008.8
20260503050524 43 336 3.0 9.0 0.00 0.06 0.00 94 1008.7
20260503050025 44 355 2.0 5.0 0.00 0.06 0.00 94 1008.8
20260503045524 44 5 3.0 5.0 0.00 0.06 0.00 94 1008.9
20260503045023 44 306 1.0 6.0 0.00 0.06 0.00 94 1008.9
20260503044521 44 299 3.0 6.0 0.00 0.06 0.00 94 1009.0
20260503044020 44 328 1.0 6.0 0.00 0.06 0.00 94 1008.9
20260503043521 44 5 3.0 9.0 0.00 0.06 0.00 94 1008.9
20260503043023 44 11 3.0 9.0 0.00 0.06 0.00 94 1008.9
20260503042518 44 351 4.0 9.0 0.00 0.06 0.00 94 1008.9
20260503042017 44 10 4.0 9.0 0.00 0.06 0.00 94 1008.9
20260503041524 44 326 4.0 9.0 0.00 0.06 0.00 94 1009.0
20260503041014 44 350 3.0 6.0 0.00 0.06 0.00 94 1009.2
20260503040512 44 355 2.0 6.0 0.00 0.06 0.00 94 1009.2
20260503040016 44 355 3.0 9.0 0.00 0.06 0.06 93 1009.2
20260503035511 44 43 3.0 9.0 0.00 0.06 0.06 93 1009.4
20260503035011 44 13 2.0 6.0 0.00 0.06 0.06 93 1009.5
20260503034611 44 344 2.0 6.0 0.00 0.06 0.06 93 1009.6
20260503034008 44 14 3.0 5.0 0.00 0.06 0.06 93 1009.6
20260503033508 44 19 2.0 8.0 0.00 0.06 0.06 93 1009.7
20260503033008 44 347 2.0 8.0 0.00 0.06 0.06 93 1009.7
20260503032508 44 5 2.0 5.0 0.00 0.06 0.06 93 1009.8
20260503032008 44 355 2.0 6.0 0.00 0.06 0.06 93 1009.8
20260503031006 44 32 2.0 6.0 0.00 0.06 0.06 93 1009.8
20260503030506 44 18 3.0 9.0 0.00 0.06 0.06 93 1009.7
20260503030007 44 360 2.0 8.0 0.00 0.06 0.06 93 1009.7
20260503025505 44 16 4.0 8.0 0.00 0.06 0.06 93 1009.7
20260503025005 44 5 3.0 6.0 0.00 0.06 0.06 93 1009.8
20260503024505 44 355 2.0 5.0 0.00 0.06 0.06 93 1009.8
20260503024004 44 31 2.0 5.0 0.00 0.06 0.06 93 1009.9
20260503023504 44 5 1.0 5.0 0.00 0.06 0.06 93 1010.0
20260503023004 45 5 2.0 8.0 0.00 0.06 0.06 93 1010.0
20260503022503 45 9 2.0 8.0 0.01 0.06 0.06 93 1009.9
20260503022003 45 351 2.0 6.0 0.01 0.06 0.06 93 1009.9
20260503021503 45 325 2.0 6.0 0.01 0.06 0.06 93 1010.0
20260503021004 45 29 3.0 6.0 0.01 0.06 0.06 93 1010.0
20260503020504 45 355 3.0 10.0 0.01 0.06 0.06 92 1010.0
20260503020003 45 5 5.0 10.0 0.01 0.06 0.06 93 1010.1
20260503015503 45 355 3.0 9.0 0.01 0.06 0.06 92 1010.1
20260503015003 45 5 3.0 6.0 0.01 0.06 0.06 92 1010.1
20260503014501 45 340 3.0 6.0 0.01 0.06 0.06 92 1010.1
20260503014001 45 333 3.0 9.0 0.01 0.06 0.06 92 1010.3
20260503013501 46 331 3.0 9.0 0.01 0.06 0.06 92 1010.2
20260503013005 46 351 3.0 5.0 0.01 0.06 0.06 92 1010.3
20260503012500 46 338 0.0 5.0 0.00 0.05 0.05 92 1010.4
20260503012037 46 332 1.0 8.0 0.00 0.05 0.05 92 1010.4
20260503011545 46 355 2.0 8.0 0.00 0.05 0.05 91 1010.3
20260503011039 46 325 3.0 6.0 0.00 0.05 0.05 91 1010.5
20260503010537 46 44 1.0 3.0 0.00 0.05 0.05 91 1010.6
20260503010037 46 46 1.0 2.0 0.00 0.05 0.05 91 1010.4
20260503005537 46 46 0.0 2.0 0.00 0.05 0.05 91 1010.4
20260503005037 46 46 0.0 2.0 0.00 0.05 0.05 91 1010.5
20260503004538 46 46 0.0 3.0 0.00 0.05 0.05 91 1010.4
20260503004037 46 46 1.0 3.0 0.00 0.05 0.05 91 1010.3
20260503003536 46 47 0.0 4.0 0.00 0.05 0.05 91 1010.3
20260503003039 46 47 2.0 4.0 0.00 0.05 0.05 91 1010.2
20260503002540 46 61 0.0 3.0 0.00 0.05 0.05 91 1010.2
20260503002035 46 61 1.0 3.0 0.00 0.05 0.05 91 1010.2
20260503001535 46 61 0.0 3.0 0.00 0.05 0.05 91 1010.1
20260503001035 46 98 1.0 3.0 0.00 0.05 0.05 90 1010.1
20260503000534 46 98 0.0 3.0 0.00 0.05 0.05 90 1010.1
20260503000037 46 104 1.0 2.0 0.00 0.05 0.05 90 1010.1
20260502235536 46 109 0.0 2.0 0.00 0.05 0.05 90 1010.1
20260502235034 46 110 0.0 2.0 0.00 0.05 0.05 90 1010.2
20260502234542 46 111 0.0 2.0 0.00 0.05 0.05 90 1010.1
20260502234034 46 111 0.0 2.0 0.00 0.05 0.05 90 1010.1
20260502233533 46 112 0.0 2.0 0.00 0.05 0.05 90 1010.1
20260502233033 46 112 0.0 2.0 0.00 0.05 0.05 89 1010.1
20260502232533 46 112 0.0 2.0 0.00 0.05 0.05 89 1010.1
20260502232036 46 112 0.0 3.0 0.00 0.05 0.05 89 1010.1
20260502231533 46 113 1.0 3.0 0.00 0.05 0.05 89 1010.1
20260502231032 46 119 1.0 3.0 0.00 0.05 0.05 89 1010.2
20260502230532 46 121 0.0 2.0 0.00 0.05 0.05 89 1010.1
20260502230033 46 121 0.0 3.0 0.00 0.05 0.05 89 1010.1
20260502225532 47 121 0.0 3.0 0.00 0.05 0.05 89 1010.2
20260502225031 47 121 0.0 4.0 0.00 0.05 0.05 89 1010.0
20260502224531 47 122 0.0 6.0 0.00 0.05 0.05 89 1010.0
20260502224032 47 117 1.0 6.0 0.00 0.05 0.05 88 1010.0
20260502223531 47 53 1.0 3.0 0.00 0.05 0.05 88 1010.0
20260502223031 47 43 0.0 4.0 0.00 0.05 0.05 88 1010.0
20260502222531 47 43 0.0 4.0 0.00 0.05 0.05 88 1010.0
20260502222029 47 41 1.0 4.0 0.00 0.05 0.05 88 1010.1
20260502221529 47 20 1.0 4.0 0.00 0.05 0.05 88 1010.0
20260502221029 47 15 2.0 4.0 0.00 0.05 0.05 88 1010.1
20260502220529 47 12 1.0 3.0 0.00 0.05 0.05 88 1010.1
20260502220029 47 12 1.0 3.0 0.00 0.05 0.05 88 1010.3
20260502215531 47 12 1.0 3.0 0.00 0.05 0.05 88 1010.3
20260502215028 47 14 2.0 3.0 0.00 0.05 0.05 87 1010.3
20260502214528 47 59 0.0 3.0 0.00 0.05 0.05 87 1010.3
20260502214032 47 59 0.0 4.0 0.00 0.05 0.05 87 1010.2
20260502213528 47 91 0.0 6.0 0.00 0.05 0.05 87 1010.3
20260502213038 47 67 3.0 7.0 0.00 0.05 0.05 86 1010.3
20260502212528 47 85 1.0 3.0 0.00 0.05 0.05 86 1010.4
20260502212027 47 90 0.0 4.0 0.00 0.05 0.05 85 1010.4
20260502211531 47 96 1.0 4.0 0.00 0.05 0.05 85 1010.4
20260502211026 48 94 1.0 3.0 0.00 0.05 0.05 85 1010.3
20260502210526 48 92 0.0 3.0 0.00 0.05 0.05 85 1010.3
20260502210026 48 92 1.0 4.0 0.00 0.05 0.05 85 1010.2
20260502204526 48 107 0.0 2.0 0.00 0.05 0.05 84 1010.2
20260502204028 48 107 0.0 3.0 0.00 0.05 0.05 84 1010.3
20260502203525 49 107 2.0 6.0 0.00 0.05 0.05 84 1010.2
20260502203026 49 82 2.0 6.0 0.00 0.05 0.05 83 1010.3
20260502202525 49 74 2.0 6.0 0.00 0.05 0.05 82 1010.4
20260502202025 49 146 1.0 4.0 0.00 0.05 0.05 81 1010.3
20260502201535 49 125 1.0 3.0 0.00 0.05 0.05 81 1010.4
20260502201029 50 124 1.0 3.0 0.00 0.05 0.05 80 1010.4
20260502200526 50 126 1.0 3.0 0.00 0.05 0.05 81 1010.4
20260502200024 50 125 1.0 4.0 0.00 0.05 0.05 81 1010.4
20260502195523 50 125 1.0 4.0 0.00 0.05 0.05 80 1010.5
20260502195024 50 119 1.0 4.0 0.00 0.05 0.05 81 1010.4
20260502194523 50 104 1.0 5.0 0.00 0.05 0.05 81 1010.3
20260502194023 50 141 3.0 5.0 0.00 0.05 0.05 81 1010.3
20260502193527 50 199 1.0 5.0 0.00 0.05 0.05 83 1010.4
20260502193023 50 157 2.0 8.0 0.00 0.05 0.05 83 1010.4
20260502192523 50 84 3.0 6.0 0.00 0.05 0.05 84 1010.3
20260502192021 50 90 3.0 6.0 0.00 0.05 0.05 84 1010.4
20260502191527 50 99 1.0 6.0 0.00 0.05 0.05 84 1010.4
20260502191020 50 175 1.0 6.0 0.00 0.05 0.05 84 1010.5
20260502190521 50 139 1.0 4.0 0.00 0.05 0.05 86 1010.5
20260502184516 49 99 1.0 4.0 0.00 0.05 0.05 85 1010.8